Howell, MI

5:35 AM EST on February 25, 2017 (GMT -0500)
Livingston County

Weather History for KOZW - February, 2013

Change the Weather History Date:

Thursday, February 7, 2013

  Actual Average Record
Temperature  
Mean Temperature 32 °F -  
Max Temperature 38 °F 33 °F 51 °F (2017)
Min Temperature 25 °F 19 °F 0 °F (2007)
Degree Days  
Heating Degree Days 34    
Moisture  
Dew Point 21 °F    
Average Humidity 67    
Maximum Humidity 86    
Minimum Humidity 61    
Precipitation  
Precipitation 0.00 in - - ()
Sea Level Pressure  
Sea Level Pressure 30.07 in    
Wind  
Wind Speed 8 mph (ESE)    
Max Wind Speed 14 mph    
Max Gust Speed 16 mph    
Visibility 10 miles    
Events Snow    
Averages and records for this station are not official NWS values.
T = Trace of Precipitation, MM = Missing Value Source: NWS Daily Summary

Daily Weather History Graph

Daily Weather History Graph

Search for Another Location

Airport or City:

Trip Planner

Search our weather history database for the weather conditions in past years. The results will help you decide how hot, cold, wet, or windy it might be!

Date:

Astronomy

Feb. 07, 2013 Rise Set
Actual Time 7:42 AM EST 5:57 PM EST
Civil Twilight 7:13 AM EST 6:27 PM EST
Nautical Twilight 6:40 AM EST 7:00 PM EST
Astronomical Twilight 6:07 AM EST 7:33 PM EST
Moon 5:23 AM EST (2/7) 3:19 PM EST (2/7)
Length of Visible Light 11h 13m
Length of Day
10h 14m
Waning Crescent, 9% of the Moon is Illuminated
Feb 7
Waning Crescent
Feb 10
New
Feb 17
First Quarter
Feb 25
Full
Mar 4
Last Quarter

Hourly Weather History & Observations

Time (EST) Temp. Windchill Dew Point Humidity Pressure Visibility Wind Dir Wind Speed Gust Speed Precip Events Conditions
12:15 AM 25.3 °F 19.7 °F 14.0 °F 62% 30.23 in 10.0 mi SSE 4.6 mph - N/A   Overcast
12:34 AM 25.3 °F 18.5 °F 13.8 °F 62% 30.23 in 10.0 mi SSE 5.8 mph - N/A   Overcast
12:54 AM 25.2 °F 17.3 °F 14.0 °F 63% 30.23 in 10.0 mi SSE 6.9 mph - N/A   Overcast
1:15 AM 25.3 °F 16.7 °F 14.0 °F 62% 30.22 in 10.0 mi SE 8.1 mph - N/A   Overcast
1:34 AM 25.5 °F 17.8 °F 14.5 °F 63% 30.22 in 10.0 mi SSE 6.9 mph - N/A   Overcast
1:54 AM 25.5 °F 17.8 °F 14.7 °F 64% 30.22 in 10.0 mi SSE 6.9 mph - N/A   Overcast
2:15 AM 25.7 °F 17.1 °F 15.4 °F 65% 30.22 in 10.0 mi SE 8.1 mph - N/A   Overcast
2:34 AM 25.7 °F 19.0 °F 15.4 °F 65% 30.22 in 10.0 mi ESE 5.8 mph - N/A   Overcast
2:54 AM 25.7 °F 19.0 °F 15.8 °F 66% 30.22 in 10.0 mi East 5.8 mph - N/A   Overcast
3:14 AM 25.9 °F 20.3 °F 16.3 °F 67% 30.23 in 10.0 mi SSE 4.6 mph - N/A   Overcast
3:34 AM 25.7 °F 20.1 °F 16.9 °F 69% 30.23 in 10.0 mi SE 4.6 mph - N/A   Mostly Cloudy
3:55 AM 25.7 °F 16.4 °F 17.6 °F 71% 30.21 in 10.0 mi ESE 9.2 mph - N/A   Overcast
4:14 AM 25.7 °F 17.1 °F 18.0 °F 73% 30.20 in 10.0 mi ESE 8.1 mph - N/A   Overcast
4:34 AM 26.1 °F 15.6 °F 18.5 °F 73% 30.20 in 10.0 mi SE 11.5 mph - N/A   Overcast
4:55 AM 25.9 °F 16.0 °F 18.3 °F 73% 30.18 in 10.0 mi ESE 10.4 mph - N/A   Overcast
5:14 AM 26.2 °F 15.2 °F 18.3 °F 72% 30.18 in 10.0 mi SE 12.7 mph - N/A   Overcast
5:35 AM 26.4 °F 16.6 °F 18.0 °F 70% 30.18 in 10.0 mi SE 10.4 mph - N/A   Overcast
5:55 AM 26.6 °F 18.2 °F 17.6 °F 69% 30.18 in 10.0 mi SSE 8.1 mph - N/A   Overcast
6:14 AM 26.6 °F 18.2 °F 17.2 °F 68% 30.17 in 10.0 mi SE 8.1 mph - N/A   Overcast
6:35 AM 26.6 °F 19.1 °F 17.1 °F 67% 30.18 in 10.0 mi SSE 6.9 mph - N/A   Overcast
6:54 AM 26.6 °F 16.2 °F 17.2 °F 68% 30.17 in 10.0 mi SSE 11.5 mph - N/A   Overcast
7:15 AM 26.6 °F 17.5 °F 17.4 °F 68% 30.17 in 10.0 mi SSE 9.2 mph - N/A   Overcast
7:35 AM 27.1 °F 18.2 °F 17.2 °F 66% 30.17 in 10.0 mi SSE 9.2 mph - N/A   Mostly Cloudy
7:54 AM 27.5 °F 20.2 °F 17.1 °F 65% 30.17 in 10.0 mi SSE 6.9 mph - N/A   Overcast
8:15 AM 27.9 °F 19.1 °F 17.1 °F 64% 30.17 in 10.0 mi SSE 9.2 mph - N/A   Overcast
8:34 AM 28.2 °F 18.9 °F 17.4 °F 64% 30.17 in 10.0 mi SSE 10.4 mph - N/A   Overcast
8:55 AM 28.4 °F 19.7 °F 17.6 °F 64% 30.17 in 10.0 mi SSE 9.2 mph - N/A   Overcast
9:14 AM 28.9 °F 20.4 °F 18.3 °F 65% 30.16 in 10.0 mi SE 9.2 mph - N/A   Overcast
9:35 AM 29.7 °F 23.7 °F 19.0 °F 65% 30.16 in 10.0 mi SSE 5.8 mph - N/A   Overcast
9:55 AM 30.2 °F 21.9 °F 19.4 °F 64% 30.15 in 10.0 mi SSE 9.2 mph - N/A   Overcast
10:14 AM 30.6 °F 23.1 °F 20.3 °F 66% 30.14 in 10.0 mi SSE 8.1 mph - N/A   Overcast
10:35 AM 31.1 °F 22.4 °F 20.7 °F 65% 30.14 in 10.0 mi SE 10.4 mph - N/A   Overcast
10:55 AM 32.0 °F 24.8 °F 21.4 °F 65% 30.14 in 10.0 mi SSE 8.1 mph - N/A   Overcast
11:14 AM 32.0 °F 25.6 °F 22.1 °F 67% 30.14 in 10.0 mi SE 6.9 mph - N/A   Overcast
11:35 AM 32.5 °F 26.2 °F 22.3 °F 66% 30.14 in 10.0 mi SE 6.9 mph - N/A   Overcast
11:54 AM 33.1 °F 26.9 °F 23.0 °F 66% 30.13 in 10.0 mi SE 6.9 mph - N/A   Overcast
12:14 PM 33.4 °F 25.4 °F 23.4 °F 67% 30.11 in 10.0 mi SE 10.4 mph - N/A   Overcast
12:35 PM 34.0 °F 28.0 °F 23.5 °F 66% 30.09 in 10.0 mi ESE 6.9 mph - N/A   Overcast
12:54 PM 34.2 °F 28.2 °F 23.4 °F 65% 30.09 in 10.0 mi ESE 6.9 mph - N/A   Overcast
1:14 PM 34.7 °F 28.8 °F 23.9 °F 65% 30.07 in 10.0 mi ESE 6.9 mph - N/A   Overcast
1:35 PM 35.2 °F 27.1 °F 24.4 °F 65% 30.06 in 10.0 mi ESE 11.5 mph - N/A   Overcast
1:54 PM 35.8 °F 28.8 °F 25.0 °F 65% 30.05 in 10.0 mi SE 9.2 mph - N/A   Overcast
2:14 PM 36.1 °F 28.2 °F 24.8 °F 63% 30.04 in 10.0 mi SE 11.5 mph - N/A   Overcast
2:35 PM 36.1 °F 28.7 °F 24.4 °F 63% 30.03 in 10.0 mi ESE 10.4 mph - N/A   Overcast
2:54 PM 36.9 °F 29.6 °F 24.6 °F 61% 30.02 in 10.0 mi ESE 10.4 mph - N/A   Mostly Cloudy
3:14 PM 37.0 °F 29.8 °F 25.0 °F 62% 30.01 in 10.0 mi ESE 10.4 mph - N/A   Mostly Cloudy
3:35 PM 37.4 °F 30.3 °F 25.3 °F 62% 30.00 in 10.0 mi East 10.4 mph - N/A   Scattered Clouds
3:54 PM 37.6 °F 30.5 °F 25.7 °F 62% 29.99 in 10.0 mi ESE 10.4 mph - N/A   Scattered Clouds
4:15 PM 38.3 °F 31.4 °F 25.7 °F 61% 29.98 in 10.0 mi ESE 10.4 mph - N/A   Scattered Clouds
4:34 PM 37.8 °F 29.8 °F 25.9 °F 62% 29.97 in 10.0 mi East 12.7 mph - N/A   Scattered Clouds
4:54 PM 36.9 °F 29.6 °F 25.3 °F 63% 29.97 in 10.0 mi East 10.4 mph - N/A   Scattered Clouds
5:15 PM 36.0 °F 29.6 °F 25.5 °F 66% 29.96 in 10.0 mi East 8.1 mph - N/A   Scattered Clouds
5:34 PM 35.1 °F 27.4 °F 25.0 °F 67% 29.96 in 10.0 mi East 10.4 mph - N/A   Mostly Cloudy
5:55 PM 34.7 °F 27.5 °F 25.5 °F 69% 29.96 in 10.0 mi East 9.2 mph - N/A   Overcast
6:15 PM 33.6 °F 24.6 °F 25.3 °F 72% 29.95 in 10.0 mi East 12.7 mph - N/A   Overcast
6:34 PM 32.9 °F 23.7 °F 24.6 °F 72% 29.95 in 10.0 mi ESE 12.7 mph - N/A   Overcast
6:55 PM 32.5 °F 24.2 °F 24.4 °F 72% 29.95 in 10.0 mi East 10.4 mph - N/A   Overcast
7:15 PM 32.0 °F 22.1 °F 23.9 °F 72% 29.93 in 10.0 mi East 13.8 mph - N/A   Overcast
7:34 PM 32.0 °F 23.0 °F 23.9 °F 72% 29.93 in 10.0 mi East 11.5 mph 16.1 mph N/A   Overcast
7:55 PM 32.0 °F 25.6 °F 23.7 °F 71% 29.93 in 10.0 mi East 6.9 mph - N/A   Overcast
8:14 PM 32.0 °F 24.8 °F 22.6 °F 68% 29.92 in 10.0 mi East 8.1 mph - N/A   Overcast
8:34 PM 32.0 °F 25.6 °F 22.8 °F 69% 29.91 in 10.0 mi East 6.9 mph - N/A   Overcast
8:55 PM 31.8 °F 23.9 °F 22.3 °F 68% 29.91 in 10.0 mi East 9.2 mph - N/A   Overcast
9:14 PM 31.8 °F 23.9 °F 21.9 °F 67% 29.90 in 10.0 mi East 9.2 mph - N/A   Overcast
9:34 PM 31.6 °F 22.6 °F 21.2 °F 65% 29.89 in 10.0 mi East 11.5 mph 16.1 mph N/A   Overcast
9:55 PM 31.8 °F 23.3 °F 21.0 °F 64% 29.88 in 10.0 mi East 10.4 mph - N/A   Overcast
10:14 PM 32.0 °F 27.5 °F 21.0 °F 64% 29.91 in 10.0 mi East 4.6 mph - N/A   Overcast
10:34 PM 32.0 °F 26.4 °F 21.2 °F 64% 29.90 in 10.0 mi ENE 5.8 mph - N/A   Overcast
10:55 PM 31.8 °F 23.9 °F 21.6 °F 66% 29.89 in 10.0 mi ENE 9.2 mph - N/A   Overcast
11:14 PM 30.9 °F 23.5 °F 23.0 °F 72% 29.87 in 1.5 mi ENE 8.1 mph - N/A Snow Light Snow
11:35 PM 29.5 °F 21.1 °F 24.6 °F 82% 29.86 in 0.5 mi ENE 9.2 mph - N/A Snow Snow
11:54 PM 28.9 °F 20.4 °F 25.3 °F 86% 29.84 in 0.2 mi ENE 9.2 mph - N/A Snow Heavy Snow